Theta_e
311 311 311 312 312 311 312 312 312 312 312 311 311 311 311 312 313 312 312 311 311 311 311 311 311 311 310 310 309 310 310 306 306 307 303 309 315 316 316 316 316 318 316 313 312 312 311 312 312 313 310 309 307 306 310 311 312 310 303 301 299 302 301 305 305 306 310 308 310 311 313 312 308 312 314 315 313 313 313 312 316 318 320 322 330 337 343 345
311 311 311 311 311 312 311 311 311 311 311 311 311 311 311 312 312 312 312 311 311 311 311 310 311 311 310 310 309 310 308 307 306 305 304 315 316 314 315 315 315 314 316 311 311 310 309 310 311 311 307 305 310 305 310 307 312 305 303 302 299 303 305 309 309 310 309 308 311 312 313 312 310 312 314 310 310 311 310 311 313 317 319 324 330 340 341 343
310 310 311 311 311 311 311 311 311 311 311 311 311 311 311 311 312 312 311 311 311 311 311 311 311 310 310 310 310 310 308 305 305 303 313 315 313 313 313 313 314 315 314 310 312 313 312 312 313 309 306 304 307 304 308 306 309 307 304 300 301 306 307 309 310 309 311 311 310 311 311 312 312 312 315 310 310 311 309 310 311 314 316 322 327 339 341 342
310 310 310 311 311 311 311 311 311 311 311 311 311 311 311 311 311 311 311 311 311 311 311 311 311 311 310 310 311 310 307 305 300 308 314 314 312 310 310 311 312 315 313 312 315 314 314 315 315 311 305 303 305 307 304 306 305 307 304 301 303 307 306 308 310 311 311 312 310 311 311 311 312 313 312 310 308 309 310 313 313 314 317 319 330 337 340 342
310 310 310 311 311 311 311 311 311 311 311 311 311 311 311 311 311 311 311 311 311 311 311 311 311 311 311 310 309 309 305 298 304 313 316 313 311 310 310 310 312 311 312 311 312 315 313 312 312 310 305 301 304 304 304 306 308 307 304 306 306 308 306 309 310 311 311 312 310 310 309 309 314 313 311 310 307 307 311 313 314 315 320 320 332 335 339 342
310 310 310 310 310 311 311 311 311 311 311 311 311 311 311 311 311 311 311 311 311 311 311 311 311 311 311 310 309 308 302 288 305 311 315 312 310 309 311 312 312 311 311 309 310 311 312 310 310 305 302 302 302 299 304 306 308 301 305 306 307 308 306 309 310 310 310 310 309 308 311 312 311 310 312 311 309 311 315 315 315 317 318 322 327 334 339 341
310 310 310 310 310 310 310 310 310 310 310 310 310 311 311 311 311 311 311 311 311 311 311 311 311 311 310 310 308 304 299 300 306 313 314 312 309 308 309 312 314 309 309 307 309 309 310 309 308 304 302 301 302 302 304 305 307 304 301 305 306 308 306 309 309 310 310 309 308 311 313 310 310 307 312 310 312 313 315 315 316 316 319 322 324 332 337 341
309 310 310 310 310 310 310 310 310 310 310 311 311 311 310 311 311 311 311 311 311 311 311 311 310 310 310 307 302 300 299 299 306 315 314 309 308 308 309 308 308 307 306 306 307 308 309 306 304 305 301 299 301 301 304 303 305 302 302 305 306 307 307 308 309 309 309 310 311 311 309 308 310 309 311 309 312 313 314 315 315 316 318 319 324 328 337 341
310 309 310 310 310 310 310 310 310 310 310 311 310 310 310 310 310 310 311 310 311 311 310 310 310 310 310 307 301 297 296 305 307 307 309 307 306 305 306 303 308 304 304 306 307 307 308 306 305 305 299 300 304 301 303 301 299 304 303 305 306 306 308 308 308 309 309 310 310 308 308 309 310 312 308 310 312 313 315 314 315 318 317 316 321 327 340 343
310 310 310 310 310 310 310 310 310 310 310 310 310 310 310 310 310 310 310 310 310 310 310 310 310 309 307 302 300 293 302 308 307 308 307 305 306 306 305 305 306 305 303 304 306 306 305 306 306 307 305 303 305 302 303 302 300 306 304 305 305 306 306 308 307 308 309 308 309 306 306 307 310 309 304 311 313 314 314 312 314 316 317 317 319 332 342 343
309 310 310 310 310 309 309 309 310 310 310 310 310 310 310 310 310 310 310 310 310 310 310 309 309 308 304 304 295 293 307 306 307 308 306 306 304 303 303 305 306 303 303 303 303 307 307 307 308 308 305 301 304 302 303 303 305 305 305 304 304 305 306 307 307 307 308 306 308 308 306 308 308 308 305 310 312 314 311 312 312 317 317 319 323 335 343 344
309 309 309 310 310 309 309 309 309 309 309 310 309 309 309 310 309 309 309 309 309 309 309 309 308 307 304 300 296 297 307 307 308 307 307 306 305 305 305 306 305 304 303 301 303 306 307 308 308 305 300 307 299 304 303 306 305 304 304 300 302 304 302 305 305 306 307 305 308 308 305 303 305 304 308 311 312 312 312 312 315 317 317 319 321 334 342 342
309 309 310 309 309 309 309 309 310 309 309 309 309 309 309 309 309 309 309 309 308 309 309 308 308 306 301 294 299 307 309 310 309 309 308 308 307 306 305 305 305 304 304 303 302 305 308 308 307 303 306 305 302 298 304 307 304 305 303 300 300 300 299 304 306 306 305 306 307 307 295 298 303 306 309 311 311 311 311 311 316 316 317 320 322 332 339 341
309 309 309 309 309 309 308 309 309 309 309 308 308 309 308 309 309 309 309 309 309 308 308 308 307 305 300 295 302 307 309 310 309 306 306 307 304 303 305 305 305 305 306 304 304 305 307 308 306 305 308 304 302 308 303 303 304 299 301 301 297 296 296 303 305 305 303 306 306 307 296 299 303 306 309 311 311 309 308 313 316 315 318 321 321 330 337 341
307 307 307 308 308 308 308 308 309 309 308 308 308 308 308 308 309 309 309 309 309 309 308 307 306 302 296 297 306 308 313 309 305 304 306 304 303 301 302 303 303 304 304 305 304 305 306 307 305 302 300 306 306 303 300 299 300 300 296 293 297 295 297 302 305 304 300 305 307 304 297 299 303 306 309 310 312 311 309 313 314 314 318 322 322 328 336 339
307 307 307 306 307 308 307 307 308 307 308 308 308 308 308 308 308 308 309 309 309 308 308 304 303 301 296 292 300 309 305 301 301 305 306 305 303 300 302 302 303 304 304 303 305 304 306 305 300 301 301 303 300 299 298 296 296 298 295 294 294 295 297 299 303 305 305 304 305 303 297 301 302 306 309 313 313 312 309 312 314 316 319 322 323 329 335 338
306 307 307 307 306 307 307 307 307 307 307 308 307 308 308 308 309 309 309 308 307 310 306 300 303 302 290 301 306 299 298 302 304 303 304 305 304 302 302 301 300 301 303 304 303 301 303 301 302 301 302 298 299 299 294 292 292 294 297 293 296 295 296 295 302 304 305 304 300 303 300 301 304 307 308 312 311 311 308 309 314 315 315 321 323 328 334 337
307 307 307 307 307 307 307 307 307 308 308 307 307 307 307 308 308 307 307 307 307 307 305 306 303 298 294 301 294 297 303 300 301 301 302 304 304 303 301 299 299 299 300 299 300 296 300 297 300 294 297 296 297 295 291 288 291 292 293 293 294 296 297 296 297 301 303 303 301 301 300 301 303 306 307 308 312 310 309 310 313 314 314 318 324 326 333 335
307 307 307 307 307 307 307 307 307 308 307 307 307 308 309 309 308 308 304 303 300 297 292 295 295 288 288 296 301 302 300 303 302 301 299 301 303 303 302 301 299 297 293 294 294 294 297 297 298 294 291 292 293 294 293 295 297 296 296 295 295 294 295 296 300 304 303 301 299 300 299 300 302 304 306 308 310 309 309 311 313 315 315 318 324 327 332 333
306 307 306 306 307 307 307 307 308 308 307 305 305 306 306 302 300 300 301 300 296 296 297 297 299 298 299 299 299 303 306 303 297 299 300 302 301 300 298 299 297 297 294 290 292 293 297 291 290 289 292 294 296 297 297 298 299 299 298 297 295 295 297 300 301 304 304 301 300 300 301 301 302 303 305 308 309 309 309 312 313 314 314 317 323 325 330 334
307 307 306 306 306 306 307 307 307 306 306 306 304 301 296 296 291 291 296 298 300 300 298 298 299 298 298 301 301 301 297 298 299 298 299 303 300 297 295 296 293 290 291 294 291 296 295 289 290 294 295 297 297 298 298 298 299 298 297 297 295 296 295 300 300 304 305 300 299 301 301 302 303 304 305 308 309 310 312 313 313 313 314 318 321 325 330 333
306 306 306 306 306 307 307 307 306 306 306 306 304 299 300 299 301 302 298 290 297 299 300 299 301 298 302 301 303 302 300 295 297 299 302 301 297 292 293 293 290 287 292 293 292 291 289 287 293 296 298 299 299 298 299 298 296 298 297 297 296 295 298 301 301 303 304 301 299 301 299 300 303 304 305 307 308 311 314 315 314 313 316 318 320 326 330 332
305 305 306 306 306 307 306 306 306 306 306 303 300 300 300 304 306 306 302 294 291 299 299 299 297 297 298 301 301 302 295 292 291 296 298 299 294 293 293 290 289 290 291 292 287 287 285 289 295 299 299 297 298 298 298 297 297 297 296 296 294 297 295 294 299 302 303 300 299 301 299 300 304 306 306 307 308 311 316 318 317 315 316 318 320 327 330 332
305 305 306 306 306 306 306 306 305 305 306 304 301 301 305 306 306 304 298 289 289 295 299 300 299 297 297 296 301 299 295 294 295 294 301 298 293 295 292 290 289 289 288 291 290 289 288 293 298 298 298 297 296 297 296 295 293 297 297 297 297 297 297 297 297 301 302 302 302 301 299 299 301 301 303 306 309 311 315 317 316 316 320 321 323 325 329 331
305 305 306 306 306 306 305 305 302 303 304 304 302 305 306 307 306 304 295 291 293 294 302 299 298 298 300 305 302 295 297 296 296 299 300 298 295 293 291 293 291 287 289 291 291 290 291 297 298 296 297 296 296 295 296 295 293 295 298 298 299 299 298 298 300 298 297 296 300 299 292 293 300 301 301 304 305 306 312 314 314 315 318 321 320 321 327 335
305 305 306 306 306 305 305 300 303 304 302 300 303 306 307 307 307 306 295 284 282 292 295 290 300 293 302 296 298 296 296 291 298 298 300 299 300 294 292 289 291 286 290 290 289 291 292 296 296 295 295 294 295 294 297 297 294 294 294 300 301 300 299 299 298 297 293 291 298 301 293 290 299 299 301 303 304 304 311 313 314 315 318 319 318 319 322 327
305 305 306 305 305 305 299 298 305 303 298 300 306 308 307 307 308 303 290 284 281 293 290 297 295 294 299 297 297 297 282 287 299 299 297 300 295 299 289 287 290 291 294 294 290 286 293 294 294 295 295 293 293 292 297 297 294 292 300 300 301 300 298 298 298 297 296 299 301 300 298 294 294 298 302 303 303 303 308 312 315 316 319 319 320 320 324 328
305 305 305 305 305 304 301 303 302 299 299 304 307 307 307 306 305 302 287 275 277 294 289 294 296 301 297 297 298 292 292 294 288 294 298 299 298 294 290 288 288 288 291 291 281 290 293 291 292 292 293 292 291 295 298 298 295 296 301 301 299 299 299 299 298 297 297 296 293 296 299 293 294 300 303 303 300 302 305 310 313 315 317 320 322 322 325 325
304 304 304 305 305 305 306 303 301 299 305 306 307 306 306 307 301 290 283 274 292 290 303 288 305 298 296 298 294 295 293 296 288 293 298 299 298 295 287 289 291 291 293 292 286 289 293 294 295 295 292 290 295 297 299 298 295 300 302 302 301 301 300 299 297 297 296 294 289 294 297 291 292 300 300 302 300 300 304 310 312 313 314 317 320 322 324 328
304 303 304 304 305 307 306 306 303 306 307 308 307 306 306 302 292 281 277 271 294 283 295 296 293 290 295 291 292 293 291 293 294 294 295 293 294 296 294 296 291 290 289 293 291 292 294 299 300 296 293 296 297 299 300 299 300 302 301 299 298 299 298 299 298 297 295 288 291 296 297 295 289 296 300 299 300 302 306 310 312 314 315 317 320 322 323 327
303 303 304 305 305 305 305 301 304 307 308 308 306 305 301 294 284 280 274 282 292 287 293 292 289 295 290 288 286 290 290 292 292 293 290 294 292 292 292 290 294 290 290 290 288 291 293 296 295 296 299 299 299 297 300 301 301 299 298 296 295 294 297 296 295 297 288 286 293 297 297 297 288 294 301 304 305 306 309 309 311 313 315 317 320 322 323 326
303 303 304 306 307 310 303 302 307 309 309 308 305 299 292 281 286 277 277 297 280 285 284 287 288 290 289 291 289 287 285 288 291 290 288 289 288 286 286 284 288 282 282 284 285 291 290 291 295 296 300 298 295 294 296 298 298 296 297 295 290 287 288 285 290 285 286 287 294 298 298 294 292 299 302 306 306 308 310 310 311 313 314 318 318 320 324 327
303 303 305 306 308 308 306 309 310 309 308 306 300 296 286 280 275 284 284 286 280 288 285 290 288 290 289 288 286 289 291 286 291 290 290 290 288 287 289 288 290 287 280 287 286 286 288 294 293 294 296 298 296 290 291 291 294 294 294 292 289 284 283 281 285 288 289 293 297 296 299 293 298 299 304 306 309 310 311 312 313 313 316 317 318 321 322 326
303 304 307 310 309 308 309 311 309 309 305 304 296 288 284 277 278 289 285 286 284 292 291 288 290 290 290 285 287 290 286 289 289 288 290 287 286 285 287 289 291 289 288 288 284 285 281 282 288 291 289 298 295 294 294 294 294 294 298 295 291 290 286 280 285 282 285 289 294 299 294 292 293 297 304 307 312 312 312 312 313 315 316 317 318 321 325 327
303 306 309 312 310 310 311 309 310 309 305 299 291 285 278 279 285 283 284 286 287 288 286 294 287 287 286 288 289 291 289 284 290 288 286 286 283 285 285 287 291 292 290 283 289 288 286 285 291 295 296 298 295 298 299 297 294 297 298 299 295 292 296 288 290 290 290 290 290 294 292 298 298 305 306 309 312 312 312 311 312 313 316 316 317 320 322 324
304 310 312 308 306 310 310 310 310 308 302 294 286 282 281 284 282 287 285 291 287 283 286 289 290 284 285 285 289 287 291 287 288 287 286 287 287 285 288 289 290 292 289 285 289 283 287 285 293 294 298 297 297 299 298 299 287 294 296 292 295 302 298 291 291 297 294 291 289 295 295 298 304 305 306 307 310 311 311 310 310 312 314 315 316 319 323 327
307 308 305 306 304 308 310 310 309 306 300 292 285 282 288 287 292 288 290 287 287 286 285 281 284 282 282 282 283 285 287 289 288 285 281 287 285 288 288 289 294 294 294 292 288 293 285 286 293 293 291 297 300 299 299 300 300 297 292 295 301 304 302 295 287 289 289 286 288 294 292 295 295 292 305 304 305 308 309 309 310 313 313 313 316 320 325 327
305 306 305 305 306 310 310 310 308 303 297 289 283 285 292 287 294 292 296 291 289 287 284 283 284 285 283 282 283 286 286 284 284 284 283 286 283 291 289 288 293 294 295 297 290 290 292 284 290 294 294 297 300 299 296 299 301 297 295 304 295 289 290 295 292 284 284 283 287 292 294 295 296 297 302 301 302 305 307 309 310 310 311 313 317 320 325 330
306 303 299 304 309 310 310 309 306 299 292 286 285 285 292 292 296 295 296 293 290 285 283 286 284 286 284 283 285 288 285 280 284 284 283 285 281 289 289 292 292 295 296 296 291 293 292 285 287 294 294 296 297 295 287 291 298 301 302 299 302 299 295 292 291 294 293 285 286 289 292 289 299 301 303 303 305 307 307 307 307 309 311 314 316 319 322 324
303 299 298 307 310 311 310 308 301 295 289 284 288 287 294 289 295 297 297 295 287 286 286 286 291 285 287 287 288 285 285 285 284 286 285 286 285 292 291 295 293 294 296 297 294 295 290 294 282 290 296 295 288 293 290 292 291 294 295 295 297 299 301 299 299 294 291 288 287 287 287 293 301 305 306 306 306 308 309 308 308 309 311 314 319 323 324 324
308 301 300 309 310 311 308 302 294 290 289 291 293 290 292 289 294 295 298 298 294 296 290 288 290 287 287 287 286 289 285 287 286 286 286 287 288 283 293 294 295 293 295 295 294 295 288 289 284 288 289 289 291 296 296 296 296 295 294 294 296 295 293 289 288 298 296 293 288 288 287 296 303 307 308 308 308 309 313 313 313 315 315 317 320 320 321 322
300 296 300 311 312 309 302 292 294 297 293 289 287 289 288 296 293 295 297 298 295 291 295 291 293 291 291 288 287 287 287 287 288 287 288 286 290 290 292 296 295 296 294 291 293 297 297 293 289 285 289 289 294 297 299 300 299 298 297 295 298 298 297 293 287 290 296 295 297 296 291 293 306 308 309 310 309 309 313 313 312 314 317 318 319 322 321 322
301 298 310 313 311 306 299 293 296 293 292 293 297 295 296 294 294 296 294 295 292 294 291 290 292 290 291 290 292 290 289 285 287 287 289 290 292 293 295 295 297 296 296 295 296 297 297 291 288 288 293 294 297 298 299 299 298 297 298 299 298 295 298 296 296 298 294 295 292 293 288 294 306 309 310 311 310 311 312 312 312 315 316 316 317 323 325 326
301 301 303 311 312 306 296 288 288 290 292 295 294 293 297 295 295 294 294 295 294 292 287 290 291 296 292 296 294 290 290 283 289 289 288 292 292 296 296 295 297 295 294 294 292 297 288 292 289 284 285 287 289 293 294 297 297 295 294 297 299 299 300 300 300 300 292 296 295 292 287 293 306 309 308 309 310 309 310 311 314 313 315 318 321 323 323 326
300 304 304 305 308 304 294 297 293 290 292 292 291 290 293 295 297 296 295 294 297 296 292 287 293 296 296 295 293 295 295 290 288 293 292 293 295 296 296 296 297 297 297 299 298 299 291 291 289 283 279 277 277 278 282 287 291 295 297 297 298 297 298 298 292 294 289 295 297 292 291 300 306 309 309 307 308 309 311 312 313 314 315 318 317 319 320 328
298 290 298 301 303 302 301 301 297 294 291 291 288 292 293 290 296 299 298 296 298 297 296 293 295 297 294 292 292 290 289 293 290 290 291 290 294 295 296 297 297 298 298 299 299 300 293 295 292 290 288 286 288 290 295 296 294 291 293 295 296 298 299 300 299 293 290 295 293 298 299 299 302 304 305 308 309 310 312 312 312 313 318 322 325 321 326 331
301 293 291 289 296 299 299 299 297 296 291 294 287 292 288 290 293 295 298 291 297 295 295 295 293 291 290 292 291 291 292 289 292 292 292 291 294 295 297 298 297 299 299 298 300 299 294 289 292 293 293 293 295 294 296 296 294 295 294 294 296 297 298 297 293 292 300 295 290 298 302 300 301 303 305 306 308 310 313 315 317 320 320 323 325 327 324 331
292 296 298 297 290 289 292 293 297 295 295 295 291 294 290 289 290 287 293 295 294 297 291 294 294 293 291 291 291 287 291 290 288 288 294 293 293 296 294 297 297 299 298 297 300 296 293 288 293 293 292 295 296 296 297 296 295 295 295 295 295 296 297 297 296 299 299 293 292 299 302 301 302 305 308 309 309 309 313 316 320 321 322 323 320 324 327 328
298 297 299 299 291 295 295 295 295 293 292 295 292 293 290 290 288 291 290 290 292 292 293 284 289 292 292 293 291 290 294 288 286 291 292 292 294 294 293 294 297 298 298 298 299 301 295 290 294 293 291 293 294 295 296 295 295 295 295 296 296 296 296 298 299 300 300 300 301 301 302 302 305 307 311 315 316 314 316 318 320 320 320 322 324 325 326 327
290 290 290 295 294 293 296 296 296 295 293 295 290 293 292 291 289 291 293 290 285 288 294 288 289 291 292 294 296 293 288 294 293 288 294 296 294 294 293 295 294 298 299 297 297 302 295 289 293 295 292 291 294 295 296 296 295 294 295 296 296 296 296 298 299 300 300 299 300 300 301 302 309 314 317 320 321 321 319 317 319 319 322 323 324 325 325 326
295 296 295 288 287 295 296 296 295 295 293 294 292 293 293 293 291 294 293 297 292 289 292 289 291 292 296 296 296 295 299 298 297 298 300 299 291 297 293 295 298 295 296 297 298 299 296 291 297 295 288 288 293 294 294 296 295 295 295 295 295 295 295 297 296 300 299 298 300 300 299 300 307 313 319 319 320 320 319 320 320 321 323 324 324 324 325 326
297 298 297 293 287 293 292 297 297 296 291 294 295 294 293 294 295 296 290 298 298 297 296 295 295 295 295 295 295 298 301 302 302 303 301 302 301 302 302 300 299 298 296 297 300 297 297 295 291 291 287 287 293 295 295 295 294 291 291 295 297 298 298 298 299 301 301 303 298 293 300 308 311 313 314 317 319 319 319 320 321 322 322 322 324 325 326 327
Wind_Speed
14 14 14 14 14 15 15 15 15 15 15 15 15 15 15 16 16 16 14 14 14 14 14 15 15 15 17 16 17 19 19 18 17 12 11 6 7 13 10 7 7 8 10 11 11 10 11 11 12 10 10 9 10 13 12 16 12 13 16 17 21 18 22 19 20 17 13 15 18 18 17 13 10 12 12 10 11 11 12 13 6 8 4 4 5 8 13 13
14 14 14 15 15 15 15 15 15 15 15 16 16 16 16 16 16 16 16 16 15 14 15 14 15 16 16 17 16 17 19 16 18 14 6 9 13 6 6 4 6 6 10 9 9 10 10 11 11 11 11 11 10 12 13 13 15 15 14 17 22 19 19 18 17 21 18 19 17 16 21 18 13 13 11 13 12 13 15 15 12 11 10 7 7 11 11 12
14 15 14 15 15 16 16 16 16 17 17 17 17 17 17 17 16 17 16 16 16 16 16 16 15 16 17 17 14 16 18 17 15 15 9 10 9 7 5 7 8 11 11 10 9 10 11 10 10 12 12 12 12 13 16 15 15 18 16 20 22 21 21 21 21 23 21 20 21 19 20 17 14 15 11 16 13 12 15 11 13 12 11 11 9 13 12 11
14 15 15 15 15 16 16 17 17 17 18 17 18 18 18 17 17 17 17 17 16 16 17 17 17 17 18 18 16 19 17 15 11 11 10 12 9 4 4 7 8 14 11 10 9 11 10 11 12 12 12 14 13 16 17 16 15 14 19 19 19 22 22 23 23 22 21 21 20 20 17 19 16 15 12 13 17 15 12 12 12 12 13 13 13 13 12 11
15 15 15 15 15 16 16 16 17 17 17 17 17 17 17 17 17 17 17 17 17 17 17 17 17 18 19 19 20 17 16 13 7 8 12 9 6 3 5 7 10 10 9 9 10 10 12 12 12 12 13 13 16 16 19 19 18 13 21 23 23 22 23 23 24 25 22 20 21 21 20 20 15 15 14 14 16 12 10 15 14 16 11 9 15 14 13 12
15 15 15 15 16 15 16 15 15 16 16 17 17 17 17 17 17 17 18 17 18 17 17 17 16 16 18 19 19 15 10 5 3 3 10 10 5 3 6 9 10 11 10 10 9 9 11 13 13 13 13 14 17 19 16 20 18 18 19 22 24 25 23 19 20 21 25 23 23 24 22 17 18 16 17 15 16 14 11 11 10 12 13 10 11 10 12 12
14 15 15 15 15 15 15 16 16 16 16 16 17 16 16 16 16 16 16 16 16 16 16 15 16 17 16 19 17 14 10 12 11 13 13 8 5 1 5 10 12 8 8 9 8 8 11 13 15 15 14 16 20 19 21 17 22 20 18 20 22 22 26 24 23 20 19 25 27 23 16 19 21 22 16 16 13 17 13 15 12 6 4 3 10 12 12 12
15 15 15 15 15 15 16 16 16 15 16 16 16 16 16 16 16 16 16 16 16 15 14 15 14 15 13 13 12 7 8 8 3 19 12 7 6 5 7 9 8 5 9 8 7 8 10 14 16 14 16 16 14 20 18 21 22 22 21 21 19 20 22 23 24 22 19 21 21 20 20 22 23 19 17 20 17 15 15 18 11 9 10 7 8 10 10 11
15 15 15 15 15 16 16 16 16 16 17 16 16 16 16 16 16 17 17 16 16 15 15 14 14 13 11 11 11 11 9 3 6 5 6 2 3 5 7 9 5 6 7 8 7 10 10 12 15 16 15 19 18 20 21 19 19 22 22 20 19 20 18 18 22 23 23 13 15 20 23 23 24 19 26 24 15 17 14 19 14 12 15 11 10 9 10 11
16 16 16 16 16 16 16 16 17 17 17 17 17 17 16 17 17 17 17 16 16 16 15 15 15 12 12 9 10 11 3 3 1 1 1 1 3 5 7 10 7 8 8 8 10 9 12 10 12 14 19 18 17 20 18 25 16 15 21 23 20 22 18 18 25 22 20 16 18 22 24 24 23 19 19 20 18 21 11 20 10 11 14 12 11 8 10 11
17 17 17 17 17 17 17 17 17 17 17 17 18 17 18 17 17 17 17 16 16 16 16 15 13 13 11 10 11 11 5 5 1 4 2 5 9 10 10 8 7 9 9 10 11 10 10 13 12 9 12 14 15 20 21 18 19 20 18 21 23 20 23 15 16 20 17 18 21 21 22 22 26 23 22 16 18 18 17 20 12 14 13 12 11 10 10 10
18 18 17 17 17 17 17 18 18 18 18 18 17 17 18 18 17 17 17 17 17 16 15 13 13 8 11 13 12 13 1 5 4 6 9 10 12 12 12 11 11 11 10 11 10 11 12 11 13 12 8 7 17 12 18 20 19 22 15 13 20 22 22 20 19 21 21 17 18 18 21 25 24 25 24 20 17 14 22 15 13 16 14 14 13 11 11 11
18 18 17 18 18 18 18 18 18 19 19 19 17 18 18 18 19 18 18 18 16 15 14 14 11 8 10 14 16 15 17 15 16 15 13 11 13 13 13 13 14 13 12 11 11 11 10 10 12 14 18 14 11 13 3 16 18 17 18 15 15 18 22 21 19 20 22 17 17 16 18 22 25 25 22 21 16 20 17 14 16 15 13 13 13 11 11 11
16 17 17 17 19 19 19 18 20 19 20 19 18 18 19 18 19 19 18 19 18 16 15 11 8 9 12 18 10 11 12 10 12 14 14 12 14 14 14 14 14 13 11 13 12 11 12 8 12 15 14 16 10 13 14 10 17 17 18 14 15 16 18 21 19 23 23 16 18 19 20 19 19 22 24 21 17 22 20 17 18 16 13 13 12 11 11 12
20 20 19 19 20 20 20 19 19 20 20 21 21 20 19 20 20 21 19 18 16 13 10 7 9 9 12 14 14 17 18 13 16 16 12 13 13 14 14 13 14 13 12 12 11 11 11 11 11 13 14 14 17 15 10 13 14 16 15 18 17 19 14 19 22 23 22 17 22 19 19 19 20 21 21 21 18 19 19 19 18 17 15 13 12 12 12 11
19 19 20 21 20 20 20 20 20 20 21 20 21 20 21 22 21 19 19 16 15 11 9 10 9 10 12 14 4 9 6 12 14 13 10 12 12 13 11 12 11 13 12 11 8 8 11 11 13 11 12 14 17 11 10 12 14 17 19 17 18 19 15 16 23 22 26 19 22 25 17 14 19 20 18 20 19 19 20 18 18 17 16 15 13 11 11 12
20 19 20 20 20 19 20 20 20 20 21 21 22 22 22 22 21 18 13 16 11 10 7 7 8 7 9 1 3 10 9 12 10 7 7 8 10 11 10 9 9 10 10 11 12 12 14 14 10 12 14 15 15 14 13 17 17 17 18 17 18 21 19 16 17 23 23 24 20 26 20 18 12 15 21 18 22 21 21 21 19 17 15 16 14 13 12 12
19 19 19 19 19 20 20 20 19 20 21 21 20 22 23 24 21 14 12 11 7 7 7 6 6 8 16 18 14 8 3 3 7 7 7 7 9 10 10 10 9 11 12 14 14 16 14 13 13 13 13 17 18 18 18 23 22 19 18 19 18 20 23 21 15 21 23 27 24 22 24 23 19 17 14 22 20 22 21 19 19 18 17 16 15 14 14 13
20 20 19 18 19 19 20 20 20 20 20 20 23 24 28 26 15 8 8 6 6 6 5 9 10 9 7 3 13 12 7 7 3 5 9 11 9 10 10 10 11 12 14 14 13 18 13 13 15 15 19 19 22 24 23 21 22 20 20 18 18 18 20 21 20 17 25 23 23 25 20 21 21 20 16 20 18 20 20 19 17 17 17 16 15 14 13 14
20 21 20 20 19 19 19 20 21 19 19 16 15 13 12 7 6 8 6 5 11 13 15 12 14 16 18 17 14 14 8 5 9 12 12 10 10 13 12 9 12 13 15 15 14 20 13 17 18 21 21 24 26 27 25 22 19 19 19 20 21 21 18 21 23 17 22 19 23 24 20 20 22 22 22 15 19 19 20 20 17 17 16 16 15 14 15 15
21 21 20 20 20 20 20 20 20 19 17 15 14 10 8 10 10 7 8 13 16 18 22 22 21 22 21 19 16 13 13 13 16 10 11 8 12 9 11 11 12 14 16 19 17 14 18 18 20 24 23 23 24 24 23 23 23 21 20 20 18 23 19 19 22 20 21 19 18 23 23 22 21 22 23 15 17 20 20 20 20 19 18 16 18 17 16 14
21 21 20 21 20 21 22 20 20 19 17 13 10 7 8 6 6 9 10 14 9 15 18 19 18 19 17 18 16 12 14 15 16 13 8 11 12 13 10 13 14 15 16 18 17 15 18 21 22 24 22 21 22 23 22 24 26 19 13 17 18 19 19 18 23 21 18 19 15 22 23 21 21 20 22 20 19 17 19 19 19 19 19 17 17 18 16 14
21 21 22 22 22 21 21 21 19 20 12 7 6 9 9 10 9 7 8 12 19 17 19 17 15 16 14 13 11 10 15 15 15 14 13 12 13 15 12 13 13 15 18 21 19 16 17 18 25 23 22 23 23 24 24 24 23 19 17 15 17 18 20 16 19 21 19 16 15 18 20 17 20 20 22 22 19 17 17 18 18 18 19 19 19 18 15 15
21 21 21 22 22 21 21 19 21 17 8 7 8 9 9 8 7 8 9 8 13 14 13 7 7 5 8 7 1 11 14 11 13 14 12 14 14 13 15 16 15 15 18 21 24 18 17 16 21 22 24 25 25 24 25 20 19 22 20 18 16 19 23 17 15 18 18 19 17 16 15 15 18 19 19 20 20 17 17 17 18 18 17 18 17 18 17 16
22 22 22 22 21 21 20 22 13 4 4 7 8 7 4 5 5 6 8 9 10 10 7 5 3 4 2 4 3 8 9 13 15 9 9 13 16 14 15 12 11 15 17 22 23 21 21 20 19 24 25 27 26 24 26 20 18 21 24 21 17 22 23 21 19 21 14 15 18 18 13 15 17 22 21 18 19 20 18 19 19 19 18 18 19 18 18 17
23 22 22 21 21 20 20 12 1 3 8 8 6 3 3 5 4 4 5 5 8 1 8 5 3 2 6 5 2 8 10 13 11 11 10 13 14 15 8 12 11 14 17 20 19 14 15 20 20 24 23 23 25 22 26 23 18 19 19 24 21 18 20 24 20 20 16 15 16 19 16 10 14 20 22 20 22 22 18 20 20 19 18 18 16 17 17 17
23 23 22 22 20 18 10 5 7 9 7 1 3 4 5 3 1 5 5 5 8 3 5 7 6 2 3 1 5 3 8 3 5 10 12 10 15 12 15 12 12 11 9 11 11 15 15 22 18 21 23 23 21 20 22 26 21 17 18 22 19 19 20 24 21 19 12 12 12 20 16 12 12 17 21 23 23 23 22 21 22 20 19 18 18 18 19 17
24 23 24 23 22 15 9 10 11 8 6 6 5 3 3 2 3 4 5 5 3 1 2 1 5 4 5 2 6 10 8 2 8 10 12 11 13 14 14 15 15 15 14 11 15 11 19 18 18 21 22 19 20 21 22 28 21 16 18 18 16 16 18 20 18 15 13 13 13 17 21 14 12 13 22 23 24 25 25 23 22 22 21 20 18 18 19 20
25 25 27 25 22 20 11 8 7 8 4 3 3 3 2 2 5 4 4 7 4 1 2 0 3 4 5 8 12 13 14 9 9 6 8 12 15 11 13 16 14 14 14 14 13 12 14 17 18 19 18 17 18 22 22 27 22 20 17 20 13 12 14 19 16 13 14 13 14 17 20 15 14 10 17 23 24 24 23 23 22 22 22 21 20 19 19 17
26 26 26 23 15 9 6 6 8 7 5 1 2 2 2 4 3 4 5 6 3 3 3 2 3 5 4 7 8 10 13 9 7 2 9 11 14 16 11 9 14 12 13 15 16 12 13 13 14 14 17 16 18 19 20 24 24 19 18 20 17 12 11 15 13 11 12 13 16 18 22 18 12 15 13 19 20 18 18 18 19 21 22 21 19 19 18 17
26 26 23 21 9 4 2 3 2 6 3 2 2 2 5 4 4 6 9 3 2 0 1 4 6 6 9 8 7 3 11 8 9 9 9 12 13 15 9 10 11 10 11 13 13 12 10 13 13 11 17 14 19 21 21 22 26 25 15 17 17 13 10 12 12 13 12 14 17 19 20 23 16 13 14 16 18 22 21 22 23 23 23 21 19 18 19 18
27 25 22 15 6 5 6 5 4 3 3 4 4 3 3 5 7 6 5 4 7 2 2 5 2 6 8 8 10 6 6 9 10 9 10 10 11 12 13 10 11 9 11 12 11 9 10 12 11 16 15 18 17 16 18 21 24 22 15 15 19 16 9 11 11 12 15 15 15 19 19 17 20 11 12 17 20 21 22 20 23 24 23 22 21 21 18 16
25 23 21 14 6 5 3 3 2 2 2 5 5 4 5 4 6 3 6 4 2 2 2 1 9 10 6 7 9 9 9 8 11 11 12 12 12 13 15 15 12 13 7 12 10 11 9 11 17 17 16 15 16 17 18 19 22 20 18 18 20 18 15 13 15 12 12 12 14 19 20 15 11 16 16 13 19 20 21 21 22 24 23 23 21 19 18 17
24 22 11 2 5 3 3 1 1 1 4 5 4 4 6 6 6 3 7 5 4 3 10 7 10 12 9 7 2 7 7 9 10 10 12 10 12 10 12 17 18 15 9 10 12 13 9 10 15 19 13 16 16 16 16 16 21 18 18 18 17 16 15 16 15 16 14 13 14 17 15 12 15 11 20 12 17 18 18 20 20 22 22 21 20 20 19 18
25 19 12 5 5 1 2 3 3 4 4 4 4 4 5 7 6 8 10 5 1 5 7 9 11 9 7 9 7 8 6 4 10 10 10 11 10 9 11 12 17 12 9 10 11 8 14 11 14 19 13 18 16 17 17 21 18 17 17 17 16 15 10 11 8 11 13 11 12 15 11 11 10 2 18 8 10 13 16 20 20 22 20 21 18 19 18 18
18 7 4 5 2 3 1 2 3 4 4 5 5 6 7 5 8 5 4 3 1 2 10 17 10 7 4 4 6 8 5 3 10 10 9 11 10 11 11 10 12 15 10 8 9 10 12 9 18 20 17 19 17 18 16 18 17 17 17 17 17 14 12 6 6 9 6 8 9 5 12 12 9 3 10 16 14 15 16 18 20 21 22 21 18 18 19 18
5 4 5 4 3 3 2 3 4 5 3 4 5 7 6 5 8 5 3 2 4 5 6 7 2 4 5 2 4 10 7 7 8 9 6 11 9 12 12 12 12 14 14 8 6 8 8 8 19 19 20 18 17 18 16 21 17 15 16 16 17 15 12 9 8 7 9 12 7 14 13 11 12 9 8 16 16 15 17 18 20 20 21 21 18 17 18 17
6 3 5 4 6 2 0 3 5 4 5 5 7 11 9 10 7 5 7 7 4 4 5 4 0 1 2 4 3 2 12 6 7 6 6 12 3 10 11 11 14 12 12 12 8 8 7 10 15 20 18 18 18 15 15 19 21 17 15 14 16 12 14 13 6 12 12 12 7 12 15 10 13 9 13 14 15 16 17 19 20 20 21 21 19 20 18 18
9 7 4 3 5 3 2 3 4 4 5 5 7 9 5 11 15 13 11 4 4 2 4 3 4 2 1 2 3 2 3 3 9 8 6 10 3 11 14 11 11 13 12 11 7 5 8 7 12 17 18 18 15 14 14 17 21 21 16 14 14 7 12 15 8 7 9 9 8 12 15 9 11 8 17 15 15 15 16 18 20 21 21 19 18 18 17 16
9 5 3 2 4 3 3 3 5 5 4 6 8 8 10 13 14 15 14 5 2 4 4 3 6 5 4 3 5 1 6 6 8 6 6 8 5 11 14 13 8 12 13 11 8 6 4 5 8 15 17 18 15 13 14 18 19 18 18 15 14 8 8 7 10 12 11 7 8 8 11 11 10 8 15 17 17 16 16 16 15 17 17 17 17 17 17 17
5 6 3 1 2 4 2 5 5 6 6 7 8 8 13 8 13 16 13 4 5 6 5 5 7 4 3 5 5 4 2 5 7 6 3 7 7 7 11 11 8 10 12 11 10 6 3 5 7 14 15 15 15 15 16 20 19 17 18 16 16 14 15 14 11 11 13 11 8 8 9 8 9 7 12 14 17 16 17 17 15 17 19 17 16 17 17 16
10 6 4 7 3 3 4 6 5 5 6 7 8 5 7 11 13 13 14 2 6 3 4 6 8 7 6 5 1 4 4 5 6 5 8 7 12 8 10 13 11 10 10 8 8 8 6 1 8 14 14 14 17 18 17 19 20 17 16 16 16 12 11 11 10 12 12 12 10 8 6 7 10 8 7 12 14 16 17 18 16 17 18 18 17 18 18 19
5 5 7 8 6 3 6 7 7 7 8 7 10 11 13 11 11 13 14 3 5 5 2 4 5 3 3 4 4 5 4 4 6 7 5 7 7 9 8 15 12 12 11 7 7 6 4 4 9 12 12 13 14 17 15 17 18 14 13 14 16 15 12 10 8 9 8 12 13 9 6 6 12 11 7 8 14 14 15 16 17 16 15 17 16 16 19 18
6 5 2 6 6 4 5 6 10 9 9 11 12 13 10 10 11 13 12 12 7 2 2 2 5 7 7 5 6 5 1 4 8 10 5 9 6 10 9 15 14 10 10 5 6 9 5 3 6 11 8 11 11 13 14 15 15 11 13 15 16 16 15 13 8 10 8 8 11 9 10 7 6 6 8 8 11 15 17 17 16 16 15 15 16 14 14 16
10 8 3 5 5 4 4 7 9 8 11 13 15 15 14 11 11 13 12 11 5 5 3 2 5 7 6 2 7 7 8 5 2 7 3 4 4 11 11 15 15 10 9 3 7 5 4 0 5 10 13 14 13 15 16 17 19 14 16 17 18 21 17 12 4 10 8 11 11 7 8 9 10 8 8 13 12 11 13 17 16 16 16 16 16 16 16 16
6 7 6 5 3 5 7 4 5 8 10 12 14 11 13 14 15 13 11 10 6 11 9 3 2 7 8 3 6 6 4 4 5 3 7 7 8 9 12 16 14 11 8 5 7 8 2 3 7 8 11 13 13 15 15 16 16 16 20 20 17 18 17 13 4 7 8 9 8 3 5 10 11 10 12 11 11 12 12 11 12 14 15 15 15 16 16 15
8 3 6 8 9 7 4 1 6 9 9 12 9 11 12 16 14 13 11 6 8 13 10 7 3 5 6 11 9 7 10 11 12 10 11 6 8 9 16 14 12 11 8 6 11 7 5 6 11 14 14 12 15 16 19 20 20 22 23 21 18 19 19 16 6 9 11 11 9 7 8 9 10 13 12 12 11 11 11 12 12 13 14 14 14 14 16 15
3 5 5 3 4 5 10 5 10 11 12 12 9 10 12 14 16 12 13 4 11 10 8 3 1 10 11 10 11 5 5 2 11 6 6 5 8 13 13 13 12 10 8 10 10 5 5 5 8 11 13 12 14 15 17 18 16 17 19 20 20 17 16 16 11 11 13 8 8 9 8 8 7 5 4 7 10 11 12 13 13 14 14 14 16 17 17 18
6 5 2 6 5 6 7 12 16 15 14 9 8 10 15 15 15 10 6 11 12 7 7 4 9 14 15 12 8 3 6 2 2 6 3 7 12 14 11 12 11 11 11 6 9 4 2 2 7 9 12 12 13 15 19 19 17 17 19 22 19 18 19 18 14 11 11 10 7 6 7 10 9 5 3 5 1 7 12 11 11 13 14 16 17 17 18 18
5 6 4 9 7 11 12 10 9 9 8 9 8 12 12 14 17 14 9 3 7 9 6 6 11 14 14 13 10 6 1 3 4 2 3 8 12 10 10 8 7 11 9 8 7 3 5 1 6 8 9 11 11 13 18 20 17 17 18 19 20 19 20 20 15 11 2 2 5 2 4 7 7 5 4 4 1 4 8 11 13 14 15 16 17 17 17 18
4 4 5 7 10 6 8 10 9 9 6 9 10 14 13 15 14 11 10 8 9 9 10 12 13 13 11 10 8 7 4 3 5 6 6 8 0 4 4 7 7 10 11 5 4 2 3 3 5 5 6 6 7 8 14 17 18 16 18 20 20 21 19 18 14 12 9 7 6 4 4 7 5 5 7 4 3 6 10 11 12 12 15 15 16 17 17 17
5 5 5 5 5 7 9 10 8 9 7 10 10 14 12 16 14 13 9 6 5 7 8 11 15 9 9 10 7 7 6 5 5 6 6 2 3 4 4 2 6 6 7 6 5 6 5 4 3 4 7 6 11 12 14 15 13 14 16 20 21 18 16 17 16 13 11 8 5 3 6 5 5 4 5 6 4 5 8 10 11 13 14 14 15 16 16 17
Wind_Direction
351 351 353 351 348 348 351 347 345 344 343 341 339 338 338 340 336 335 337 336 334 334 335 333 332 332 328 331 325 321 319 307 309 303 280 59 31 25 22 345 353 326 315 293 282 266 258 245 235 224 234 224 214 229 223 228 224 225 224 232 236 235 235 235 237 237 255 248 229 239 240 231 207 219 234 205 223 244 248 256 193 224 221 270 82 118 126 130
350 348 347 347 346 343 345 345 342 340 342 339 338 336 336 336 333 332 333 333 331 329 330 331 328 328 332 328 330 318 311 307 295 288 305 77 59 38 3 349 321 301 291 277 264 256 257 250 236 215 220 227 210 227 210 222 213 221 224 230 237 232 239 239 240 242 247 246 250 243 238 228 220 233 234 230 213 223 232 236 234 203 224 154 160 137 142 146
346 345 344 344 343 342 340 341 341 340 339 339 336 334 334 333 332 330 330 327 330 327 328 330 328 328 329 328 325 305 299 297 287 271 121 79 78 50 2 352 315 302 278 285 281 273 262 260 248 223 219 232 213 222 208 220 208 219 229 229 235 236 242 237 235 242 242 252 250 233 257 228 220 229 241 257 240 222 236 232 213 220 220 182 166 150 152 158
343 344 342 341 341 339 339 338 338 337 335 333 333 331 329 329 329 329 327 327 325 326 326 326 327 329 326 325 325 305 299 295 285 96 104 98 80 53 18 336 317 297 281 267 271 258 258 259 259 244 226 227 223 221 218 210 216 209 228 235 235 232 236 236 239 242 243 243 249 248 245 244 207 207 224 243 250 231 245 237 245 223 209 212 161 161 160 163
342 340 340 337 338 337 336 336 333 331 331 329 327 327 327 325 327 327 325 323 325 325 325 324 325 324 325 325 313 303 307 282 110 102 103 105 101 48 355 342 311 305 303 295 277 260 245 243 234 239 236 225 225 221 225 217 218 227 228 234 239 240 239 236 236 241 246 239 246 244 239 240 241 245 222 229 245 247 216 243 233 241 238 189 157 165 162 169
338 337 335 335 334 334 332 330 328 328 327 327 325 325 326 326 324 325 323 321 321 322 322 321 322 323 321 327 303 301 298 309 65 135 136 117 122 15 345 317 292 284 289 286 267 254 231 228 231 222 224 232 218 222 214 223 211 231 232 235 235 238 246 241 237 235 237 239 236 240 232 239 239 242 239 223 240 252 243 259 278 308 204 171 156 181 167 174
337 335 332 332 330 328 327 326 326 324 325 322 324 323 324 323 321 320 319 320 316 318 317 319 318 318 325 304 292 276 262 280 300 118 130 147 119 323 325 288 261 268 299 284 261 246 223 231 222 225 225 228 231 226 224 213 223 231 235 229 233 233 238 242 248 245 242 238 236 239 234 228 237 244 248 246 237 254 253 239 258 261 34 108 171 180 174 172
335 333 330 329 328 326 326 324 324 323 322 323 322 322 322 321 321 319 319 315 313 309 312 312 317 315 328 312 316 305 279 274 322 135 129 151 216 222 240 268 274 286 281 285 288 246 240 231 225 223 233 227 219 228 220 228 222 227 232 234 237 233 234 235 240 246 248 247 238 231 228 229 236 249 256 249 242 239 238 254 232 219 228 218 212 183 170 169
334 332 330 327 327 326 324 323 323 323 321 321 321 321 322 321 320 318 314 313 311 312 309 310 314 318 305 286 299 298 275 298 358 17 142 220 264 253 276 268 242 290 287 278 257 265 258 237 237 228 231 230 237 233 224 223 225 223 233 231 236 239 230 234 237 230 238 239 231 230 231 237 244 248 251 253 242 233 227 245 221 206 236 234 224 185 169 170
335 331 330 328 326 327 326 323 324 323 321 320 319 319 321 318 318 317 315 311 310 308 309 310 310 315 296 286 284 272 309 53 293 249 46 249 237 255 253 264 269 276 273 254 255 243 237 250 245 235 249 256 240 237 231 224 235 217 228 234 230 235 232 226 229 224 228 228 222 231 235 238 242 242 251 242 238 243 228 240 215 213 226 225 228 165 172 175
337 334 331 329 328 328 327 325 325 322 320 320 320 318 316 316 313 313 310 307 304 304 302 303 309 301 288 286 272 264 47 287 217 225 215 270 275 268 270 262 264 269 259 261 264 257 260 250 255 266 246 240 244 243 234 234 229 238 230 225 231 232 235 229 223 226 216 223 227 234 241 243 247 244 244 237 229 236 231 229 210 222 225 217 223 166 173 180
336 334 331 328 329 328 328 326 323 320 318 320 318 316 316 315 312 308 307 301 297 295 295 300 305 289 276 268 253 243 67 269 277 276 269 274 273 272 271 265 260 257 257 261 253 249 251 260 250 250 240 195 241 253 248 242 231 228 232 242 221 226 232 213 216 218 225 227 223 228 247 243 237 235 238 235 245 220 229 231 208 225 219 217 202 179 176 185
330 331 331 330 328 328 326 326 323 320 319 315 317 317 314 312 309 304 299 298 291 290 295 295 285 268 276 267 250 257 264 272 277 283 280 269 270 268 264 258 253 253 252 254 254 258 257 249 249 248 246 274 239 220 346 232 231 227 218 224 226 220 227 209 213 223 218 221 219 210 234 232 231 234 236 234 221 237 235 213 217 227 215 219 204 187 184 183
323 323 325 327 327 328 325 325 323 321 318 314 315 316 309 307 301 297 292 289 294 287 277 283 276 264 254 257 272 269 274 273 275 264 257 259 263 261 258 248 247 246 243 244 249 262 261 250 254 250 261 248 250 236 245 246 220 221 219 215 227 217 221 203 210 216 223 209 216 211 234 238 231 227 227 228 210 225 226 210 220 224 210 216 212 188 187 183
324 324 323 325 329 327 322 321 321 318 316 316 315 313 308 299 293 291 290 284 280 287 286 272 253 260 249 264 259 256 245 260 265 264 266 259 242 248 246 241 233 235 233 236 243 238 254 257 243 237 234 240 262 267 255 224 209 214 210 212 214 225 213 205 209 211 213 202 210 210 236 237 237 234 220 217 208 219 220 210 216 216 200 208 208 193 191 179
325 324 322 322 320 322 319 321 318 316 315 316 313 310 301 292 286 288 287 286 290 280 250 235 233 240 281 286 277 79 236 237 244 243 243 234 235 246 241 230 231 224 222 230 234 237 231 237 237 232 234 230 237 231 223 214 208 206 216 210 209 213 218 209 202 206 209 210 203 211 231 230 235 239 228 203 202 206 223 216 212 215 201 201 204 193 189 176
325 321 321 320 320 316 318 318 316 316 316 316 313 302 294 288 282 277 282 283 255 223 211 238 228 216 251 150 254 263 245 230 233 227 216 221 244 235 229 228 220 227 226 229 220 223 226 221 222 235 231 226 218 217 210 210 204 204 208 221 211 211 210 227 191 197 200 208 209 211 230 235 242 223 233 218 192 200 217 217 213 213 208 199 203 193 187 182
323 324 321 320 321 320 318 316 316 317 319 313 310 297 289 284 278 276 254 232 230 211 228 229 286 277 244 243 265 279 286 208 184 241 228 225 220 229 229 223 227 238 230 217 211 219 211 223 213 221 205 214 213 211 212 205 202 197 198 209 215 215 213 215 212 184 199 203 222 210 221 230 232 244 214 234 193 195 209 210 215 214 208 199 201 193 186 187
325 323 321 321 323 320 319 318 318 320 316 315 293 278 267 259 264 257 261 198 211 209 221 193 210 200 284 319 229 223 237 267 292 222 231 216 204 225 223 229 239 222 221 216 200 207 200 224 214 217 211 201 209 209 213 215 206 210 203 208 213 213 208 213 216 184 193 200 213 218 214 218 225 233 234 229 183 192 203 209 214 218 208 200 197 190 186 192
323 323 322 321 320 317 322 322 321 317 319 310 317 315 290 234 198 212 199 253 242 257 272 292 208 241 275 270 268 278 265 149 246 235 250 223 221 206 219 227 222 229 228 216 201 200 199 210 210 209 210 205 208 213 216 224 227 216 214 210 211 216 214 208 217 188 183 204 212 218 216 216 220 222 229 226 172 195 204 209 212 212 205 202 194 194 187 191
322 325 323 323 321 319 317 321 317 315 312 309 300 302 322 344 311 314 325 290 285 264 264 263 263 271 275 292 291 287 269 230 207 245 230 226 224 241 221 213 223 220 220 220 215 180 211 216 216 213 214 211 207 213 215 223 235 223 213 211 211 212 217 202 208 201 180 205 212 214 216 217 217 215 220 213 191 200 206 211 211 204 200 201 194 192 190 186
325 323 326 322 322 320 319 319 315 310 301 288 278 282 301 344 1 316 310 289 262 272 273 271 280 270 265 265 269 266 272 266 253 242 219 224 212 221 206 215 224 230 213 216 213 201 204 218 214 216 211 214 207 207 215 218 227 230 239 211 211 209 216 203 204 202 179 201 221 206 217 219 216 215 217 209 206 207 208 212 209 201 197 198 194 187 185 177
324 323 320 322 320 319 320 318 314 303 299 288 265 275 309 335 321 313 289 279 279 263 252 252 246 245 253 258 262 261 238 240 250 233 227 205 228 218 228 218 220 227 226 211 211 206 206 217 220 215 210 212 207 204 210 215 226 219 211 221 208 200 200 196 197 194 186 200 212 209 213 220 218 216 218 212 205 206 208 212 212 202 198 196 194 182 178 174
323 321 321 319 319 319 320 319 307 292 262 254 288 290 298 308 327 328 306 281 293 295 263 269 305 280 277 271 7 235 247 253 246 247 212 217 225 215 227 232 221 221 228 211 212 217 214 210 213 218 213 207 206 203 206 207 213 216 219 227 208 200 204 212 181 196 189 200 218 218 212 218 216 212 212 216 210 203 203 206 212 203 203 199 197 186 169 180
322 320 320 320 319 321 322 317 299 270 343 290 278 276 316 332 327 338 312 289 256 235 173 190 240 201 286 50 242 259 237 243 252 259 228 220 217 221 221 221 232 224 226 226 210 221 221 221 199 214 213 204 206 202 201 202 209 203 217 228 210 208 196 197 181 190 189 198 204 215 209 218 207 215 211 205 210 205 200 203 206 201 201 200 199 193 178 175
323 323 320 320 321 322 318 293 192 343 315 302 294 353 325 328 342 315 295 286 290 117 167 194 211 85 0 210 191 248 274 260 226 229 244 208 221 231 214 228 215 223 223 226 215 217 220 223 217 204 209 202 206 207 194 200 207 202 204 224 215 204 191 198 188 189 196 204 188 209 224 210 202 209 209 204 208 201 197 203 201 202 198 199 196 192 183 184
324 323 322 319 319 320 305 272 340 317 302 346 27 352 325 306 356 298 290 240 251 55 325 80 245 58 258 283 207 234 248 265 163 206 215 195 219 201 238 224 206 230 233 221 215 213 209 214 213 203 204 201 202 205 196 202 204 207 195 204 211 210 199 198 200 192 203 206 185 200 218 238 200 207 205 202 206 199 197 199 202 200 198 196 197 191 184 186
324 322 323 319 314 306 272 286 292 284 272 298 315 305 320 308 305 284 255 292 290 151 186 172 36 114 253 323 266 239 274 83 243 180 205 191 221 203 226 228 221 212 215 218 226 205 207 206 210 204 200 197 201 200 193 196 206 198 189 198 217 219 204 196 203 188 206 189 207 194 205 230 240 195 196 197 206 201 198 198 199 198 197 193 193 192 187 189
323 325 322 320 316 294 273 249 261 263 281 309 312 271 284 327 280 291 265 272 81 238 78 232 160 233 251 251 244 237 252 256 276 89 204 207 212 232 209 223 240 230 221 225 230 217 207 205 202 208 197 195 198 203 199 193 198 203 195 194 211 228 206 201 206 191 199 206 212 197 192 220 221 234 186 196 206 201 195 195 195 196 192 191 193 195 192 189
325 324 324 318 313 258 216 218 238 258 284 294 261 251 295 270 261 225 214 238 50 309 32 54 240 319 272 257 250 239 237 233 252 221 221 213 195 219 245 242 236 237 228 217 236 239 220 191 204 208 199 193 196 200 201 189 204 200 200 186 204 219 199 200 211 197 199 217 216 203 192 209 221 220 203 191 200 193 188 193 192 192 189 189 191 192 193 187
326 323 320 318 292 10 235 209 168 201 218 160 201 262 284 253 250 275 257 22 237 134 185 215 316 315 287 269 261 230 256 253 218 224 206 200 200 207 220 229 245 244 231 220 214 226 228 184 202 204 203 206 203 192 201 194 199 212 193 187 186 201 204 196 206 203 212 218 211 211 199 196 228 206 216 189 190 197 195 195 190 191 188 186 187 191 193 189
324 320 314 309 338 317 283 24 344 343 173 185 197 240 274 276 202 246 295 127 266 94 275 333 278 291 295 274 260 190 203 204 225 215 222 189 197 194 202 226 196 210 222 206 193 184 213 195 199 199 209 216 195 200 188 184 199 215 186 188 191 183 191 196 188 201 213 214 198 209 202 198 217 229 211 188 183 195 201 198 192 189 188 187 187 188 188 183
322 312 309 278 215 221 265 303 358 324 169 188 242 247 265 270 279 321 304 25 289 32 339 171 285 296 294 273 263 249 246 244 183 215 227 195 217 194 209 221 214 217 194 182 180 180 194 202 201 200 196 219 221 200 178 179 199 205 187 188 185 181 189 190 194 204 209 214 209 202 204 223 207 223 244 191 179 191 196 200 193 188 189 188 186 184 183 182
317 313 297 189 233 294 353 297 337 196 191 188 232 245 241 264 263 316 304 318 307 279 293 290 295 285 267 259 239 211 226 228 194 201 213 197 206 205 210 219 225 214 261 179 197 181 170 191 204 197 197 190 224 208 183 190 185 199 190 193 193 191 180 183 194 194 196 192 198 195 200 214 204 201 217 236 180 185 196 197 189 187 189 187 185 180 179 178
311 300 270 248 232 297 217 240 165 209 187 206 247 255 271 268 292 330 316 332 7 322 282 300 294 290 272 231 249 227 243 203 209 199 202 212 193 218 216 217 217 241 240 208 193 189 191 189 177 203 192 185 200 210 193 186 189 195 192 203 202 193 181 200 192 196 190 185 197 191 210 195 217 154 197 193 174 179 197 195 186 184 186 185 184 181 177 177
304 262 212 231 304 360 204 201 199 193 215 230 264 271 266 308 303 349 317 69 249 270 303 304 271 275 259 224 221 234 92 275 189 230 195 217 192 207 226 230 215 212 228 224 168 196 190 193 167 185 199 186 192 203 189 197 186 181 195 200 200 196 178 187 188 207 164 216 198 181 205 199 162 12 199 172 169 187 194 193 185 183 186 182 183 177 174 174
305 299 228 276 35 51 138 193 214 204 221 251 269 276 313 312 297 320 284 242 291 299 295 306 33 324 350 297 224 174 192 227 217 207 196 208 198 210 212 229 239 201 219 235 190 227 202 151 166 181 182 191 195 204 209 196 198 183 198 195 204 213 180 196 182 177 190 202 189 193 201 179 195 186 191 191 173 181 186 187 186 184 182 180 181 175 173 170
301 284 304 311 30 71 207 192 221 201 233 245 250 269 288 276 294 273 258 297 329 224 244 277 267 219 354 320 313 130 157 185 195 211 211 176 232 181 219 235 215 225 219 235 272 190 242 160 175 188 180 181 189 197 210 198 204 195 203 180 201 182 192 182 195 184 188 194 187 192 197 205 193 187 172 186 182 182 181 183 185 181 180 182 177 176 170 169
285 283 259 86 31 63 184 189 221 217 241 258 278 297 305 308 311 314 317 352 206 236 239 243 292 213 235 300 358 294 148 207 185 197 217 150 223 194 210 222 192 215 223 221 227 226 225 193 164 187 184 173 188 199 194 187 202 205 207 202 211 202 211 183 191 177 194 185 193 186 197 214 185 194 166 178 183 181 175 180 185 183 182 181 172 166 164 174
237 249 205 96 49 106 153 226 236 236 239 274 313 297 314 312 314 319 318 343 250 207 244 281 267 289 234 274 288 267 153 245 186 172 210 140 233 170 209 198 229 196 218 213 243 251 195 202 177 173 182 170 187 193 198 190 182 187 193 195 191 208 194 213 190 203 197 187 194 185 196 211 199 195 164 184 187 185 173 182 180 174 178 171 169 162 164 171
328 269 101 204 35 7 104 230 265 242 261 294 288 296 309 304 314 307 309 164 213 223 264 262 280 282 330 278 227 295 180 226 178 202 192 183 187 174 209 201 218 206 201 204 229 207 235 210 206 172 174 189 183 188 201 191 188 193 190 189 193 184 179 198 178 201 203 201 189 191 201 205 192 195 169 183 183 186 176 180 176 177 183 182 174 170 169 175
274 318 69 150 153 219 263 280 242 267 313 323 320 315 294 297 293 301 313 323 210 224 244 274 268 270 277 311 327 281 252 224 223 215 180 212 176 237 177 211 208 213 198 201 215 176 238 178 208 177 173 183 182 176 217 208 194 205 202 195 194 182 197 196 183 186 188 202 200 187 200 197 176 154 148 175 176 183 179 180 176 175 178 180 176 169 176 180
333 4 81 138 164 225 271 272 337 338 340 332 312 303 313 301 285 293 300 279 237 165 271 248 289 304 215 251 265 252 205 301 265 227 184 235 185 223 161 198 206 216 210 207 217 167 182 240 193 184 168 174 175 178 204 205 194 199 201 209 190 195 198 198 194 179 212 186 198 176 193 168 137 135 123 142 168 181 175 178 173 176 176 179 168 161 169 181
319 329 133 166 167 154 285 345 343 342 331 327 325 317 309 313 322 322 317 328 338 223 194 281 323 243 268 252 262 279 187 205 238 230 184 225 201 198 183 195 198 213 209 178 233 144 215 204 220 165 169 158 175 184 191 198 198 200 196 202 192 195 205 206 204 168 226 166 204 182 188 134 118 144 163 173 168 179 175 175 179 174 172 163 155 161 171 175
275 226 275 146 197 162 293 342 335 329 323 329 329 322 337 336 336 327 317 321 340 326 170 230 248 289 270 330 277 244 237 274 301 251 280 242 217 179 187 192 191 210 199 154 310 156 246 22 221 185 165 169 170 178 181 184 194 191 193 193 193 198 200 195 162 178 205 177 205 151 190 130 144 176 177 196 189 173 169 173 182 179 163 155 156 161 176 173
349 335 352 340 205 245 251 263 274 324 331 335 327 329 338 332 336 337 346 335 354 339 332 314 216 290 283 227 245 235 266 266 239 277 240 214 222 173 177 188 189 203 178 169 237 227 246 188 222 212 180 171 175 181 184 190 184 191 192 194 199 199 196 208 186 175 205 171 209 40 99 138 152 176 174 183 193 177 163 169 171 150 150 152 152 161 171 163
294 354 344 332 324 229 321 218 339 346 334 332 320 332 328 334 336 332 6 308 3 338 325 311 35 345 330 321 297 268 177 207 243 264 264 269 187 170 165 190 193 193 147 191 232 237 193 204 213 234 210 177 172 182 180 192 190 198 186 184 197 205 194 203 192 189 175 180 156 108 118 151 147 158 163 169 182 188 169 170 168 158 162 160 158 171 161 159
331 44 337 19 300 325 333 345 338 324 315 323 320 321 330 335 341 342 330 335 337 323 345 304 286 351 334 322 331 318 353 138 159 210 277 260 236 155 166 186 198 147 169 208 206 217 213 213 218 237 223 196 181 181 186 192 197 189 193 196 196 201 199 199 197 190 143 205 119 98 86 107 99 96 119 154 177 179 171 171 159 158 160 162 167 173 169 163
3 312 33 30 298 317 312 293 288 285 286 324 327 337 338 336 335 339 328 311 322 312 7 300 329 334 329 320 303 299 22 328 95 35 7 265 205 161 168 172 198 165 206 212 211 198 346 274 234 217 242 240 200 187 175 193 197 194 193 190 188 188 204 197 193 191 147 91 106 104 94 86 55 53 78 60 0 179 164 168 158 163 167 165 170 169 169 167
17 356 337 343 303 283 272 269 286 303 322 5 339 350 332 331 331 331 330 307 305 301 325 307 317 320 321 311 313 330 56 318 342 275 288 329 154 181 163 191 172 181 203 202 212 127 278 91 229 222 217 220 244 198 174 189 186 193 191 193 192 190 204 198 193 203 132 340 40 247 107 106 78 58 65 66 55 137 149 164 165 171 171 170 170 170 171 169
348 321 328 313 314 303 318 310 326 327 343 359 342 340 336 335 332 334 306 305 285 291 314 315 309 309 305 308 308 312 38 331 308 340 342 12 54 12 242 174 212 175 185 201 224 123 171 252 212 244 206 210 206 183 176 184 190 194 190 195 192 191 198 194 201 201 215 198 208 249 203 113 78 64 92 96 146 163 165 165 166 171 170 171 172 170 168 165
336 338 301 304 288 295 281 318 317 336 1 348 341 339 335 335 333 339 323 352 329 310 300 294 306 308 313 318 344 356 341 321 313 328 348 338 3 313 7 140 235 202 188 223 227 235 191 282 241 205 211 179 202 196 179 187 181 198 198 193 192 190 194 199 210 206 215 216 201 228 72 71 33 35 60 94 136 153 166 172 167 173 167 174 173 170 165 164